Regional Weather Roundup
Issued by NWS

Home | Current Version | Previous Version | Text Only | Print | Product List | Glossary Off
Versions: 1 2 3 4 5 6 7 8 9 10 11 12 13 14 15 16 17 18 19 20 21 22 23 24 25 26 27 28 29 30 31 32 33 34 35 36 37 38 39 40 41 42 43 44 45 46 47 48 49 50

669
ASUS44 KMEG 292110
RWRTN
TENNESSEE HOURLY STATE WEATHER ROUNDUP
NATIONAL WEATHER SERVICE MEMPHIS TN
400 PM CDT SUN MAY 29 2016

TNZ002-004-019-021-049-052-054-088>092-292200-
WEST TENNESSEE

CITY           SKY/WX    TMP DP  RH WIND       PRES   REMARKS
MEMPHIS INTL   PTSUNNY   89  69  51 W7        30.07F HX  93
NWS MEMPHIS      N/A     88 N/A N/A MISG        N/A
JACKSON        SUNNY     86  66  51 W7        30.06F
DYERSBURG      PTSUNNY   88  68  51 W3        30.06F HX  91
UNION CITY     MOSUNNY   88  66  48 W8        30.05F HX  90
PARIS          MOSUNNY   84  66  54 W9        30.07F
LEXINGTON      MOSUNNY   88  64  45 W7        30.06F
$$

TNZ008-025-027-028-033-062-065-066-292200-
NORTH MIDDLE TENNESSEE

CITY           SKY/WX    TMP DP  RH WIND       PRES   REMARKS
NASHVILLE      MOSUNNY   89  63  41 W7        30.05F HX  90
CLARKSVILLE    MOSUNNY   85  68  56 SW9       30.05F
SMYRNA         MOSUNNY   90  65  43 W8        30.05F HX  92
COOKEVILLE     SUNNY     88  66  48 N5        30.07F HX  90
CROSSVILLE     MOSUNNY   82  61  48 W8        30.12F
$$

TNZ061-075-076-078-094-096-097-292200-
SOUTH MIDDLE TENNESSEE

CITY           SKY/WX    TMP DP  RH WIND       PRES   REMARKS
FAYETTEVILLE   MOSUNNY   86  63  45 VRB6G13   30.07F
TULLAHOMA      SUNNY     86  63  45 CALM      30.08F
WINCHESTER     SUNNY     86  64  48 W8        30.07F
MCMINNVILLE    PTSUNNY   88  64  45 VRB6      30.07F
COLUMBIA       SUNNY     90  66  45 VRB6      30.05F HX  92
SHELBYVILLE    SUNNY     90  66  45 W7        30.07F HX  92
$$

TNZ017-018-042-046-047-292200-
NORTHEAST TENNESSEE

CITY           SKY/WX    TMP DP  RH WIND       PRES   REMARKS
TRI CITIES     CLOUDY    79  60  52 E5        30.11F
$$

TNZ012-013-036-069-073-074-292200-
CENTRAL EAST TENNESSEE

CITY           SKY/WX    TMP DP  RH WIND       PRES   REMARKS
KNOXVILLE      MOSUNNY   85  64  49 VRB6      30.06F
OAK RIDGE      SUNNY     85  61  44 VRB3      30.07F
GATLINBURG     SUNNY     81  63  54 NE6       30.07S
$$

TNZ083-085-099-292200-
SOUTHEAST TENNESSEE

CITY           SKY/WX    TMP DP  RH WIND       PRES   REMARKS
CHATTANOOGA    PTSUNNY   90  60  36 NE5       30.05F
$$

SKY/WX REPORTED AS FAIR MEANS FEW OR NO CLOUDS BELOW
12 THOUSAND FEET.





USA.gov is the U.S. government's official web portal to all federal, state and local government web resources and services.